Weather History for Greenville, AL

Change the Weather History Date:

Monday, December 31, 2012

  Actual Average Record
Temperature  
Mean Temperature 45 °F -  
Max Temperature 60 °F 61 °F 80 °F (1951)
Min Temperature 30 °F 39 °F 13 °F (1983)
Degree Days  
Heating Degree Days 20    
Moisture  
Dew Point 39 °F    
Average Humidity 72    
Maximum Humidity 92    
Minimum Humidity 57    
Precipitation  
Precipitation 0.00 in - - ()
Sea Level Pressure  
Sea Level Pressure 30.26 in    
Wind  
Wind Speed 2 mph (SE)    
Max Wind Speed 7 mph    
Max Gust Speed -    
Visibility 10 miles    
Events      
Averages and records for this station are not official NWS values.
T = Trace of Precipitation, MM = Missing Value Source: NWS Daily Summary

Daily Weather History Graph

Daily Weather History Graph

Search for Another Location

Airport:

Trip Planner

Search our weather history database for the weather conditions in past years. The results will help you decide how hot, cold, wet, or windy it might be!

Date:

Astronomy

Dec. 31, 2012 Rise Set
Actual Time 6:46 AM CST 4:53 PM CST
Civil Twilight 6:19 AM CST 5:19 PM CST
Nautical Twilight 5:49 AM CST 5:50 PM CST
Astronomical Twilight 5:19 AM CST 6:20 PM CST
Moon 8:09 PM CST (12/31) 8:39 AM CST (12/31)
Length of Visible Light 11h 00m
Length of Day
10h 06m
Waning Gibbous, 90% of the Moon is Illuminated
Dec 31
Waning Gibbous
Jan 4
Last Quarter
Jan 11
New
Jan 18
First Quarter
Jan 26
Full

Hourly Weather History & Observations

Time (CST) Temp. Windchill Dew Point Humidity Pressure Visibility Wind Dir Wind Speed Gust Speed Precip Events Conditions
12:56 AM 30.9 °F - 28.9 °F 92% 30.37 in 10.0 mi Calm Calm - N/A   Clear
1:56 AM 30.0 °F - 28.0 °F 92% 30.35 in 10.0 mi Calm Calm - N/A   Clear
2:56 AM 33.1 °F - 28.9 °F 85% 30.35 in 10.0 mi Calm Calm - N/A   Clear
3:56 AM 33.1 °F - 28.0 °F 82% 30.34 in 10.0 mi Calm Calm - N/A   Clear
4:56 AM 34.0 °F - 27.0 °F 75% 30.33 in 10.0 mi Calm Calm - N/A   Clear
5:56 AM 33.1 °F - 27.0 °F 78% 30.35 in 10.0 mi Calm Calm - N/A   Clear
6:56 AM 35.1 °F - 27.0 °F 72% 30.35 in 10.0 mi Calm Calm - N/A   Clear
7:56 AM 37.9 °F 35.5 °F 28.9 °F 70% 30.35 in 10.0 mi ESE 3.5 mph - N/A   Clear
8:56 AM 44.1 °F 42.5 °F 32.0 °F 63% 30.38 in 10.0 mi Variable 3.5 mph - N/A   Clear
9:56 AM 48.9 °F - 35.1 °F 59% 30.38 in 10.0 mi Variable 4.6 mph - N/A   Mostly Cloudy
10:56 AM 51.1 °F - 37.9 °F 61% 30.35 in 10.0 mi Variable 4.6 mph - N/A   Overcast
11:56 AM 55.0 °F - 41.0 °F 59% 30.31 in 10.0 mi South 6.9 mph - N/A   Overcast
12:56 PM 57.0 °F - 43.0 °F 59% 30.26 in 10.0 mi Calm Calm - N/A   Overcast
1:56 PM 60.1 °F - 45.0 °F 57% 30.22 in 10.0 mi Variable 3.5 mph - N/A   Scattered Clouds
2:56 PM 60.1 °F - 46.0 °F 60% 30.21 in 10.0 mi Variable 3.5 mph - N/A   Overcast
3:56 PM 59.0 °F - 46.9 °F 64% 30.20 in 10.0 mi Calm Calm - N/A   Overcast
4:56 PM 57.9 °F - 48.0 °F 70% 30.21 in 10.0 mi ESE 3.5 mph - N/A   Overcast
5:56 PM 57.0 °F - 46.9 °F 69% 30.22 in 10.0 mi SE 3.5 mph - N/A   Overcast
6:56 PM 55.9 °F - 48.0 °F 75% 30.22 in 10.0 mi SSE 4.6 mph - N/A   Overcast
7:56 PM 55.0 °F - 48.0 °F 77% 30.18 in 10.0 mi SE 5.8 mph - N/A   Overcast
8:56 PM 55.9 °F - 48.0 °F 75% 30.16 in 10.0 mi SSE 5.8 mph - N/A   Overcast
9:56 PM 55.9 °F - 48.0 °F 75% 30.15 in 10.0 mi Variable 3.5 mph - N/A   Overcast
10:56 PM 55.9 °F - 48.0 °F 75% 30.13 in 10.0 mi SSE 6.9 mph - N/A   Overcast
11:18 PM 55.4 °F - 48.2 °F 77% 30.13 in 10.0 mi SE 4.6 mph - N/A   Overcast
11:56 PM 55.0 °F - 48.0 °F 77% 30.12 in 10.0 mi South 6.9 mph - N/A   Overcast